Weather History for Frederick, MD

Change the Weather History Date:

Sunday, March 30, 2014

  Actual Average (KHGR) Record (KHGR)
Temperature  
Mean Temperature 42 °F -  
Max Temperature 46 °F 56 °F 87 °F (1998)
Min Temperature 37 °F 37 °F 27 °F (2008)
Degree Days  
Heating Degree Days 24    
Moisture  
Dew Point 42 °F    
Average Humidity 94    
Maximum Humidity 100    
Minimum Humidity 76    
Precipitation  
Precipitation 0.05 in - - ()
Sea Level Pressure  
Sea Level Pressure 29.68 in    
Wind  
Wind Speed 9 mph (NNW)    
Max Wind Speed 22 mph    
Max Gust Speed 31 mph    
Visibility 8 miles    
Events Rain , Snow    
Averages and records for this station are not official NWS values.
T = Trace of Precipitation, MM = Missing Value Source: NWS Daily Summary

Daily Weather History Graph

Daily Weather History Graph

Search for Another Location

Airport:

Trip Planner

Search our weather history database for the weather conditions in past years. The results will help you decide how hot, cold, wet, or windy it might be!

Date:

Astronomy

Mar. 30, 2014 Rise Set
Actual Time 6:57 AM EDT 7:31 PM EDT
Civil Twilight 6:30 AM EDT 7:58 PM EDT
Nautical Twilight 5:58 AM EDT 8:30 PM EDT
Astronomical Twilight 5:25 AM EDT 9:03 PM EDT
Moon 6:41 AM EDT (3/30) 7:41 PM EDT (3/30)
Length of Visible Light 13h 28m
Length of Day
12h 34m
Waning Crescent, 0% of the Moon is Illuminated
Mar 30
Waning Crescent
Mar 30
New
Apr 7
First Quarter
Apr 15
Full
Apr 22
Last Quarter

Hourly Weather History & Observations

Time (EDT) Temp. Windchill Dew Point Humidity Pressure Visibility Wind Dir Wind Speed Gust Speed Precip Events Conditions
12:00 AM 46.4 °F 42.9 °F 46.4 °F 100% 29.61 in 10.0 mi North 6.9 mph - N/A   Overcast
12:20 AM 46.4 °F 44.3 °F 46.4 °F 100% 29.61 in 10.0 mi North 4.6 mph - N/A   Overcast
12:40 AM 46.4 °F 43.5 °F 46.4 °F 100% 29.61 in 7.0 mi North 5.8 mph - N/A   Overcast
1:00 AM 46.4 °F 44.3 °F 46.4 °F 100% 29.61 in 5.0 mi North 4.6 mph - N/A   Overcast
1:20 AM 46.4 °F 44.3 °F 46.4 °F 100% 29.60 in 5.0 mi NNW 4.6 mph - N/A   Overcast
1:40 AM 46.4 °F 42.9 °F 46.4 °F 100% 29.61 in 7.0 mi NW 6.9 mph - N/A   Overcast
2:00 AM 46.4 °F 42.9 °F 46.4 °F 100% 29.61 in 2.5 mi West 6.9 mph - N/A   Drizzle
2:20 AM 46.4 °F 44.3 °F 46.4 °F 100% 29.61 in 7.0 mi WNW 4.6 mph - N/A   Overcast
2:40 AM 46.4 °F 42.9 °F 46.4 °F 100% 29.61 in 10.0 mi WNW 6.9 mph - N/A   Overcast
3:00 AM 46.4 °F 42.4 °F 46.4 °F 100% 29.59 in 7.0 mi NNW 8.1 mph - N/A   Light Drizzle
3:20 AM 46.4 °F 42.9 °F 46.4 °F 100% 29.58 in 10.0 mi North 6.9 mph - N/A   Drizzle
3:40 AM 46.4 °F 44.3 °F 46.4 °F 100% 29.58 in 10.0 mi NW 4.6 mph - 0.01 in   Overcast
4:00 AM 46.4 °F 44.3 °F 46.4 °F 100% 29.58 in 10.0 mi WNW 4.6 mph - N/A   Overcast
4:20 AM 46.4 °F 42.4 °F 46.4 °F 100% 29.58 in 10.0 mi NW 8.1 mph - N/A Rain Rain
4:45 AM 46.4 °F 41.9 °F 46.4 °F 100% 29.59 in 10.0 mi WNW 9.2 mph - N/A   Light Drizzle
5:05 AM 46.4 °F 41.1 °F 46.4 °F 100% 29.59 in 7.0 mi WNW 11.5 mph - N/A Rain Rain
5:25 AM 46.4 °F 41.5 °F 46.4 °F 100% 29.58 in 10.0 mi NNW 10.4 mph - 0.01 in   Light Drizzle
5:45 AM 44.6 °F 39.7 °F 44.6 °F 100% 29.59 in 10.0 mi NNW 9.2 mph - 0.01 in   Drizzle
6:05 AM 44.6 °F 41.4 °F 44.6 °F 100% 29.59 in 10.0 mi NNW 5.8 mph - N/A Rain Rain
6:25 AM 44.6 °F 39.7 °F 44.6 °F 100% 29.60 in 10.0 mi NW 9.2 mph - 0.01 in Rain Light Rain
6:35 AM 44.6 °F 39.2 °F 44.6 °F 100% 29.61 in 7.0 mi WNW 10.4 mph - 0.03 in Rain Heavy Rain
6:50 AM 44.6 °F 38.4 °F 44.6 °F 100% 29.61 in 5.0 mi NW 12.7 mph 18.4 mph N/A Rain Rain
6:59 AM 44.6 °F 38.4 °F 44.6 °F 100% 29.62 in 5.0 mi NW 12.7 mph 18.4 mph N/A Rain Rain
7:49 AM 42.8 °F 38.0 °F 42.8 °F 100% 29.66 in 5.0 mi NW 8.1 mph - N/A Rain Heavy Rain
8:45 AM 42.8 °F 36.6 °F 42.8 °F 100% 29.66 in 7.0 mi NNW 11.5 mph 18.4 mph N/A Rain Rain
9:50 AM 42.8 °F 35.4 °F 42.8 °F 100% 29.67 in 10.0 mi NNW 15.0 mph 20.7 mph N/A Rain Rain
10:50 AM 42.8 °F 35.8 °F 42.8 °F 100% 29.69 in 7.0 mi NNW 13.8 mph - N/A Rain Rain
11:48 AM 41.0 °F 33.1 °F 41.0 °F 100% 29.69 in 6.0 mi NW 15.0 mph 20.7 mph N/A Rain Rain
12:45 PM 39.2 °F 30.8 °F 37.4 °F 93% 29.69 in 5.0 mi NNW 15.0 mph 20.7 mph N/A Rain Light Rain
1:50 PM 37.4 °F 30.8 °F 37.4 °F 100% 29.69 in 4.0 mi NNW 9.2 mph - N/A Rain Light Rain
2:58 PM 37.4 °F 30.8 °F 37.4 °F 100% 29.70 in 3.0 mi North 9.2 mph 16.1 mph N/A Snow Light Snow
4:50 PM 39.2 °F 33.6 °F 39.2 °F 100% 29.71 in 4.0 mi North 8.1 mph - N/A Rain Rain
5:45 PM 41.0 °F 34.3 °F 39.2 °F 93% 29.74 in 7.0 mi NNE 11.5 mph 17.3 mph N/A   Overcast
6:55 PM 42.8 °F 36.6 °F 39.2 °F 87% 29.77 in 5.0 mi North 11.5 mph 21.9 mph N/A Rain Light Rain
7:45 PM 42.8 °F 34.8 °F 39.2 °F 87% 29.79 in 7.0 mi North 17.3 mph 29.9 mph N/A Rain Light Rain
8:45 PM 42.8 °F 36.6 °F 37.4 °F 81% 29.82 in 10.0 mi NNW 11.5 mph 23.0 mph N/A   Overcast
9:05 PM 42.8 °F 34.5 °F 35.6 °F 76% 29.83 in 10.0 mi NNW 18.4 mph 24.2 mph N/A   Overcast
9:25 PM 42.8 °F 35.1 °F 35.6 °F 76% 29.83 in 10.0 mi NNW 16.1 mph 24.2 mph N/A   Overcast
9:45 PM 42.8 °F 35.1 °F 35.6 °F 76% 29.83 in 10.0 mi NNW 16.1 mph 27.6 mph N/A   Overcast
10:05 PM 42.8 °F 34.5 °F 35.6 °F 76% 29.84 in 10.0 mi NNW 18.4 mph 31.1 mph N/A   Mostly Cloudy
10:25 PM 42.8 °F 34.3 °F 35.6 °F 76% 29.84 in 10.0 mi NNW 19.6 mph 25.3 mph N/A   Mostly Cloudy
10:45 PM 42.8 °F 33.8 °F 35.6 °F 76% 29.85 in 10.0 mi NNW 21.9 mph 27.6 mph N/A   Overcast
11:05 PM 42.8 °F 35.4 °F 35.6 °F 76% 29.85 in 10.0 mi NNW 15.0 mph 24.2 mph N/A   Overcast
11:25 PM 42.8 °F 34.0 °F 35.6 °F 76% 29.85 in 10.0 mi NNW 20.7 mph 27.6 mph N/A   Overcast
11:45 PM 42.8 °F 35.4 °F 35.6 °F 76% 29.86 in 10.0 mi NNW 15.0 mph 24.2 mph N/A   Mostly Cloudy